Temp
52 52 52 52 52 51 51 51 51 51 51 51 51 51 52 52 52 46 40 40 41 36 37 40 41 33 33 32 28 33 34 35 32 30 34 31 31 32 29 33 26 26 27 29 31 27 24 41 40 33 39 41 43 44
51 51 51 51 51 51 51 51 51 50 50 50 51 51 52 52 52 50 39 42 43 38 35 40 44 46 44 44 40 39 34 38 39 32 34 34 32 32 30 24 37 27 33 31 32 32 40 43 40 43 41 41 44 44
52 52 51 51 51 51 51 51 50 50 50 50 50 51 51 52 52 50 42 45 43 37 33 34 38 45 46 46 51 34 37 44 40 43 37 36 33 36 26 28 29 37 40 34 35 38 37 42 43 45 46 44 46 47
51 52 51 51 51 51 51 50 50 50 50 50 50 51 51 52 52 51 44 45 43 38 31 33 46 45 52 49 45 47 45 43 44 43 39 36 34 40 35 33 34 39 40 37 36 40 42 43 41 44 45 46 46 47
51 51 51 51 51 51 50 50 50 49 50 50 50 51 51 51 51 49 45 42 46 36 31 31 41 45 47 48 47 46 46 43 41 39 38 36 40 38 40 38 35 41 40 35 35 42 40 40 45 45 43 42 45 45
51 51 50 51 51 51 50 50 49 49 50 50 50 51 51 51 50 41 35 44 42 43 36 31 37 40 46 48 46 42 45 41 43 40 40 41 46 39 33 35 42 46 47 45 42 47 45 46 47 45 44 44 46 46
50 50 50 51 51 51 50 50 49 49 50 50 50 50 50 50 46 39 37 41 48 46 37 35 31 40 44 44 42 42 46 42 44 42 39 40 41 40 36 34 42 46 47 48 48 47 44 44 42 45 45 46 47 47
50 49 49 50 50 50 50 49 49 49 49 49 50 50 50 50 48 42 43 48 49 40 41 33 32 34 43 37 39 41 40 43 43 42 42 39 41 40 35 42 45 48 49 48 47 48 45 47 46 45 46 45 44 44
50 49 49 50 50 50 49 49 49 49 49 49 50 51 46 41 41 45 53 51 46 42 34 32 32 29 40 37 37 41 43 38 44 39 39 40 38 35 41 45 44 48 47 44 49 49 48 47 46 45 44 44 42 42
49 49 49 50 50 49 48 48 49 49 49 50 46 45 39 43 53 51 46 42 40 40 40 35 40 33 38 36 39 40 41 39 35 39 44 38 37 41 41 44 46 50 49 48 44 44 44 44 44 44 43 44 44 42
49 49 49 50 50 48 47 47 48 48 48 40 38 39 40 48 42 38 34 37 37 34 37 37 38 35 38 36 36 41 38 36 35 38 37 36 34 36 39 42 46 51 49 49 49 47 45 45 44 43 44 44 44 43
49 49 49 50 49 47 46 47 48 41 39 40 40 40 38 39 37 34 32 38 36 34 38 35 34 35 35 38 38 40 36 39 32 40 39 33 35 37 39 41 44 49 49 49 50 48 47 48 47 45 44 44 43 42
49 49 49 49 47 46 46 48 48 48 46 42 39 36 36 36 28 33 31 31 31 33 35 34 32 33 34 35 32 36 34 33 37 34 33 33 36 38 37 40 44 51 49 49 49 49 49 49 48 46 44 45 43 42
49 49 49 48 47 46 47 48 48 46 40 39 38 27 33 32 33 33 33 34 37 35 36 34 31 31 32 30 33 32 37 37 31 25 27 33 35 36 37 42 49 50 47 47 47 48 48 47 46 46 45 45 44 42
49 49 48 46 46 46 48 48 48 43 40 37 38 28 35 39 39 39 38 37 37 36 34 32 32 32 30 32 34 33 31 24 26 27 31 34 36 36 36 38 46 48 48 46 46 46 46 47 45 44 45 44 44 44
49 47 44 46 46 47 48 47 44 42 41 39 38 36 37 36 35 36 35 34 37 36 34 33 31 31 31 32 28 27 21 24 28 32 34 35 36 36 36 39 45 49 50 47 46 47 46 46 44 43 44 45 44 44
46 41 45 45 47 47 48 42 42 40 39 41 37 39 37 36 35 35 35 35 36 35 31 31 30 23 34 27 23 28 24 30 34 34 35 36 36 35 37 39 44 48 49 49 47 46 45 46 46 43 41 43 44 45
41 43 46 46 46 45 43 42 41 41 38 38 35 38 37 37 36 35 35 35 35 34 33 31 33 25 24 19 24 30 33 36 36 35 36 37 38 37 39 39 43 47 49 49 46 47 46 44 42 41 41 42 42 42
43 44 48 48 45 42 41 41 41 37 39 39 39 39 37 36 37 37 35 35 36 35 33 30 27 27 27 32 31 33 34 33 33 35 38 40 40 39 39 42 44 44 47 47 47 46 45 45 44 42 42 41 40 41
46 47 48 48 47 41 40 40 44 38 36 39 39 37 36 35 36 34 33 33 31 30 29 28 31 31 31 33 36 34 35 38 36 34 35 37 39 40 39 39 40 42 42 42 44 44 47 44 43 46 42 41 40 40
45 45 47 44 42 41 40 40 39 39 39 38 39 38 34 35 33 31 30 32 29 27 25 29 33 35 37 38 38 39 39 39 36 35 34 34 37 38 37 39 40 40 38 38 37 40 41 45 47 46 46 43 42 41
42 47 42 43 40 40 37 41 40 40 39 38 37 38 33 30 30 30 31 28 27 27 30 34 35 36 37 37 39 41 40 40 40 38 37 37 35 35 36 37 38 36 36 37 37 37 39 42 44 45 48 47 42 41
46 45 42 42 38 35 35 43 39 39 36 36 36 35 32 30 32 35 26 23 25 31 37 37 38 38 37 40 42 40 36 35 33 37 37 37 37 38 37 38 39 37 35 36 38 38 38 38 42 44 46 44 45 41
46 40 37 36 35 32 41 37 37 36 36 31 33 33 32 30 32 28 23 21 26 32 36 37 38 37 38 39 36 31 31 31 31 34 37 37 32 33 37 37 38 39 38 38 37 38 38 39 38 41 44 44 46 44
33 32 32 26 37 35 35 35 35 32 34 34 35 32 31 31 25 24 25 23 26 28 35 37 37 37 34 29 29 29 31 29 27 28 33 34 31 32 35 37 38 38 38 35 35 35 36 38 39 39 41 43 42 46
25 32 29 33 33 34 35 32 32 33 34 35 34 34 30 28 29 27 25 25 24 26 29 30 29 29 28 29 27 26 28 29 28 27 28 31 30 29 29 31 32 34 37 37 35 34 34 35 36 37 38 40 38 42
23 27 33 40 38 38 33 36 37 33 33 33 32 31 28 23 24 26 28 29 27 30 32 31 30 29 28 27 28 29 29 29 28 28 29 29 30 31 30 29 30 34 36 36 35 34 33 33 33 34 35 38 40 42
32 35 31 32 33 34 34 33 35 35 35 37 34 32 30 28 27 29 30 32 33 32 32 33 32 32 32 30 30 29 29 29 31 31 29 29 29 30 32 32 34 34 35 36 34 34 33 32 32 33 34 35 38 42
31 34 35 32 33 33 35 35 37 39 41 39 32 30 30 34 30 27 31 33 34 32 30 32 30 34 32 31 30 29 28 26 27 25 23 21 25 26 30 30 32 35 35 34 32 32 31 31 32 33 34 36 39 41
31 35 31 33 33 32 37 39 38 39 38 36 35 34 30 29 31 34 34 33 32 31 30 31 29 31 28 27 26 28 28 24 22 21 17 19 20 26 28 28 28 31 32 31 30 30 29 32 32 32 32 33 32 32
36 36 34 33 35 38 39 39 39 38 37 34 35 31 27 29 33 34 31 29 29 30 31 29 28 29 28 27 27 26 24 27 28 27 23 24 25 25 26 27 27 30 29 29 28 27 25 25 27 27 28 28 29 29
35 34 34 33 32 37 38 35 33 32 31 29 27 28 26 25 24 25 30 29 29 27 26 28 27 26 29 29 29 29 27 26 26 28 28 25 24 26 25 24 25 27 26 24 24 23 22 23 22 22 24 25 27 27
32 35 36 35 31 32 34 34 31 28 30 28 29 30 27 23 19 26 31 29 26 24 24 27 28 28 30 30 30 29 29 29 27 26 25 25 24 24 24 24 25 26 24 21 20 20 18 17 18 18 19 21 22 25
MSLP
1023.32 1023.55 1023.70 1023.57 1023.57 1023.55 1023.44 1023.11 1023.07 1023.28 1023.39 1023.05 1022.61 1022.25 1021.97 1021.68 1021.59 1021.63 1021.82 1021.71 1021.53 1020.95 1019.11 1018.27 1018.15 1017.79 1017.66 1017.71 1017.54 1016.64 1016.09 1015.29 1014.80 1014.41 1013.78 1013.47 1012.99 1012.47 1012.36 1011.96 1011.80 1011.81 1011.55 1010.82 1010.08 1009.21 1008.07 1007.34 1007.22 1007.51 1006.86 1005.71 1005.23 1005.03
1022.49 1022.84 1023.14 1023.12 1023.01 1023.11 1023.08 1022.83 1022.80 1022.83 1022.87 1022.73 1022.40 1022.09 1021.72 1021.49 1021.38 1021.33 1021.78 1021.48 1021.37 1021.22 1018.76 1017.81 1017.26 1016.77 1016.59 1016.27 1016.70 1016.48 1016.32 1016.12 1015.51 1014.80 1014.61 1014.32 1013.84 1013.19 1012.82 1012.40 1011.51 1011.39 1011.01 1010.85 1010.41 1008.20 1007.49 1007.27 1007.15 1006.72 1006.54 1005.77 1004.70 1004.45
1021.80 1022.13 1022.48 1022.53 1022.49 1022.56 1022.68 1022.59 1022.55 1022.53 1022.33 1022.23 1022.00 1021.90 1021.56 1021.25 1021.01 1021.19 1021.25 1021.05 1021.06 1020.48 1018.39 1017.34 1015.90 1015.07 1014.87 1015.05 1015.11 1016.08 1015.38 1015.13 1014.88 1014.22 1014.50 1014.35 1013.86 1013.51 1013.03 1012.01 1011.24 1010.54 1010.36 1010.04 1009.38 1007.71 1007.37 1006.86 1006.44 1006.27 1005.80 1005.26 1004.54 1003.74
1021.15 1021.50 1021.80 1021.89 1021.94 1021.99 1022.18 1022.24 1022.24 1022.19 1022.06 1021.90 1021.66 1021.41 1021.20 1020.92 1020.64 1020.57 1020.82 1020.71 1020.91 1020.75 1020.00 1017.11 1015.28 1014.53 1013.89 1013.81 1014.13 1014.13 1013.91 1013.87 1013.92 1014.13 1014.36 1014.12 1013.58 1013.24 1012.41 1011.53 1010.97 1009.92 1009.47 1008.54 1007.98 1007.28 1006.83 1006.15 1005.99 1005.83 1005.16 1004.69 1004.04 1003.29
1020.52 1020.84 1021.16 1021.39 1021.47 1021.44 1021.59 1021.73 1021.82 1021.67 1021.56 1021.33 1021.06 1020.88 1020.75 1020.47 1020.30 1020.20 1020.06 1020.12 1020.02 1020.51 1019.92 1017.73 1015.73 1014.07 1013.52 1013.28 1012.89 1012.94 1013.33 1013.68 1013.64 1013.93 1013.70 1013.34 1012.88 1012.51 1011.53 1010.98 1009.83 1008.75 1008.34 1008.18 1006.98 1006.56 1006.65 1006.22 1005.44 1005.44 1005.12 1004.25 1003.56 1002.89
1019.89 1020.12 1020.51 1020.77 1021.01 1021.07 1021.11 1021.28 1021.32 1021.24 1021.05 1020.82 1020.65 1020.37 1020.19 1020.12 1019.95 1020.32 1019.91 1019.92 1019.94 1020.18 1019.86 1018.44 1016.34 1014.64 1013.38 1012.75 1012.31 1012.18 1012.54 1013.44 1013.48 1013.29 1012.82 1012.50 1012.16 1012.27 1011.60 1010.33 1008.49 1007.73 1007.22 1006.96 1006.66 1006.13 1005.84 1005.16 1005.22 1005.05 1004.74 1003.79 1003.10 1002.66
1019.30 1019.44 1020.01 1020.26 1020.42 1020.62 1020.75 1020.91 1020.86 1020.72 1020.47 1020.22 1020.04 1019.88 1019.66 1019.78 1019.85 1020.24 1019.80 1019.70 1019.59 1019.89 1019.60 1018.41 1016.98 1014.91 1013.73 1013.04 1012.59 1012.53 1012.51 1012.62 1012.80 1012.64 1012.23 1011.90 1011.67 1011.84 1011.18 1009.81 1008.19 1007.37 1006.86 1006.29 1006.01 1005.92 1005.65 1005.67 1005.46 1005.05 1004.43 1003.73 1003.26 1002.50
1018.40 1018.83 1019.42 1019.58 1019.84 1020.13 1020.29 1020.37 1020.38 1020.13 1019.87 1019.56 1019.35 1019.05 1018.91 1019.18 1019.38 1019.45 1018.62 1018.47 1018.88 1019.56 1019.22 1018.78 1017.34 1015.87 1014.29 1013.90 1013.38 1012.79 1012.56 1012.41 1012.09 1011.82 1011.66 1011.47 1011.42 1011.25 1010.50 1009.29 1008.10 1007.20 1006.35 1006.00 1006.03 1006.10 1006.06 1005.31 1004.94 1004.80 1004.21 1003.70 1003.17 1002.60
1017.51 1018.22 1018.90 1018.95 1019.16 1019.59 1019.82 1019.89 1019.95 1019.67 1019.22 1018.81 1018.58 1018.05 1018.40 1018.71 1018.98 1018.40 1018.14 1018.39 1018.62 1019.23 1018.98 1018.68 1018.13 1016.96 1015.08 1014.47 1013.71 1013.05 1012.48 1012.17 1011.73 1011.55 1011.25 1011.34 1011.06 1010.73 1009.68 1008.82 1008.03 1007.19 1006.84 1006.49 1006.09 1005.87 1005.55 1005.35 1005.16 1004.86 1004.39 1003.93 1003.63 1003.04
1016.66 1017.59 1018.19 1018.42 1018.65 1018.98 1019.32 1019.57 1019.51 1019.22 1018.67 1017.97 1018.05 1018.26 1018.43 1018.18 1017.87 1018.20 1018.51 1018.56 1018.61 1018.86 1018.87 1018.54 1018.07 1017.24 1016.33 1015.35 1014.03 1013.24 1012.50 1011.93 1011.48 1011.02 1010.80 1011.00 1011.09 1011.53 1010.63 1009.78 1008.31 1007.29 1006.87 1006.46 1006.32 1005.79 1005.69 1005.39 1005.37 1005.07 1004.60 1004.25 1004.03 1003.57
1016.05 1016.92 1017.49 1017.80 1018.10 1018.56 1018.92 1019.25 1019.11 1018.77 1018.25 1018.18 1018.55 1018.84 1018.85 1018.25 1018.40 1018.44 1018.46 1018.28 1018.55 1018.67 1018.59 1018.22 1017.77 1017.12 1015.95 1015.66 1014.56 1013.58 1012.80 1012.00 1011.20 1010.99 1010.78 1010.97 1012.21 1012.68 1011.82 1010.73 1009.49 1007.95 1007.26 1006.80 1006.77 1006.47 1006.37 1006.01 1005.72 1005.18 1004.76 1004.60 1004.35 1003.91
1015.42 1016.23 1016.78 1017.08 1017.59 1018.14 1018.67 1018.88 1018.90 1018.84 1018.83 1018.82 1018.84 1019.10 1019.07 1018.52 1018.45 1018.51 1018.03 1017.88 1018.15 1018.13 1018.00 1017.67 1016.98 1016.54 1015.71 1015.14 1014.58 1013.58 1013.01 1012.25 1011.62 1011.52 1011.19 1012.47 1013.81 1013.53 1012.45 1011.00 1009.78 1008.54 1007.66 1007.16 1007.09 1006.75 1006.56 1006.23 1005.88 1005.70 1005.37 1004.96 1004.83 1004.63
1014.78 1015.57 1016.11 1016.58 1017.21 1017.80 1018.28 1018.52 1018.54 1018.44 1018.48 1018.73 1018.65 1018.68 1018.49 1018.36 1018.19 1017.95 1017.57 1017.65 1017.74 1017.66 1017.43 1017.22 1017.15 1016.41 1015.37 1015.11 1014.83 1014.43 1013.76 1012.98 1012.64 1012.55 1013.31 1014.47 1014.72 1013.71 1012.58 1011.29 1009.56 1008.18 1007.82 1007.55 1007.54 1007.10 1006.87 1006.69 1006.59 1006.64 1006.07 1005.78 1005.74 1005.51
1014.24 1015.06 1015.57 1016.17 1016.91 1017.46 1017.90 1018.11 1018.23 1018.39 1018.26 1018.28 1018.05 1018.05 1017.70 1017.56 1017.44 1017.28 1017.35 1017.43 1017.23 1017.19 1017.06 1017.02 1016.91 1016.51 1015.91 1015.70 1015.53 1015.16 1014.59 1014.27 1014.56 1015.33 1015.74 1015.69 1015.35 1014.71 1013.53 1011.27 1009.68 1008.62 1008.22 1007.97 1007.75 1007.73 1007.37 1007.06 1007.00 1007.00 1007.01 1006.69 1006.34 1005.95
1013.80 1014.61 1015.25 1016.03 1016.60 1017.26 1017.60 1017.77 1018.10 1018.01 1017.87 1017.82 1017.43 1017.26 1016.96 1016.79 1016.82 1016.97 1017.08 1017.18 1017.07 1016.85 1016.83 1016.79 1016.88 1016.84 1016.66 1016.51 1016.30 1016.23 1015.96 1016.65 1017.17 1017.58 1017.40 1016.69 1015.93 1014.98 1013.95 1012.39 1010.41 1009.13 1008.38 1008.07 1008.06 1008.10 1008.04 1007.67 1007.62 1007.63 1007.50 1007.31 1007.22 1006.93
1013.60 1014.60 1015.29 1015.82 1016.40 1016.97 1017.35 1017.57 1017.94 1017.80 1017.59 1017.23 1016.86 1016.59 1016.65 1016.91 1017.23 1017.31 1017.32 1017.31 1016.88 1016.79 1016.80 1017.08 1017.36 1017.44 1017.84 1017.88 1018.01 1018.21 1018.17 1018.72 1018.75 1018.42 1018.19 1017.43 1016.30 1015.27 1014.04 1012.70 1010.82 1009.57 1008.77 1008.33 1008.06 1008.06 1008.22 1008.18 1008.24 1008.26 1008.30 1008.33 1007.85 1007.35
1013.60 1014.38 1014.81 1015.52 1016.14 1016.72 1017.11 1017.46 1017.45 1017.30 1016.87 1016.47 1016.25 1016.00 1016.38 1016.85 1017.28 1017.39 1017.44 1017.46 1017.14 1017.29 1017.84 1017.81 1018.25 1018.82 1018.88 1019.06 1019.67 1019.90 1020.07 1019.90 1019.35 1019.14 1018.61 1017.69 1016.80 1015.75 1014.47 1013.07 1011.43 1010.13 1009.43 1008.92 1008.57 1008.51 1008.70 1008.74 1008.64 1008.70 1008.85 1008.73 1008.41 1008.14
1013.69 1014.02 1014.65 1015.34 1015.96 1016.58 1016.99 1017.05 1016.86 1016.39 1016.20 1015.97 1015.96 1015.88 1016.22 1016.68 1017.24 1017.52 1017.57 1017.57 1017.56 1017.75 1018.02 1018.54 1018.67 1019.46 1020.00 1020.32 1020.54 1020.58 1020.34 1019.98 1019.85 1019.37 1018.70 1017.90 1017.07 1016.18 1015.08 1013.90 1012.26 1010.96 1010.04 1009.58 1009.27 1008.96 1009.12 1009.29 1009.42 1009.38 1009.22 1009.16 1008.90 1008.64
1013.26 1013.97 1014.53 1015.14 1015.50 1015.87 1016.03 1016.39 1016.29 1015.76 1015.43 1015.43 1015.56 1015.84 1016.42 1017.08 1017.43 1017.57 1017.89 1017.85 1017.83 1018.04 1018.55 1019.29 1019.94 1020.49 1020.82 1020.85 1020.92 1020.69 1020.55 1020.27 1019.71 1019.04 1018.45 1017.81 1017.26 1016.55 1015.31 1014.25 1012.94 1011.89 1011.04 1010.61 1010.14 1009.87 1009.34 1009.23 1009.34 1009.54 1009.38 1009.24 1009.28 1009.11
1013.57 1014.23 1014.80 1015.24 1015.55 1015.48 1015.49 1015.34 1015.01 1015.16 1015.15 1014.98 1015.30 1016.11 1016.79 1017.30 1017.81 1018.22 1018.37 1018.52 1018.74 1019.32 1019.93 1020.34 1020.66 1020.91 1021.00 1021.07 1021.02 1020.91 1020.57 1020.26 1019.85 1019.14 1018.45 1017.86 1017.30 1016.63 1016.01 1015.24 1014.31 1013.51 1012.72 1011.94 1011.35 1010.81 1010.25 1009.94 1009.63 1009.55 1009.72 1009.68 1009.59 1009.56
1014.14 1014.80 1015.19 1015.38 1015.55 1015.58 1015.36 1014.75 1014.66 1014.64 1014.59 1014.94 1015.45 1015.91 1017.02 1017.58 1018.20 1018.70 1019.17 1019.28 1019.87 1020.72 1021.05 1020.97 1020.93 1020.94 1020.93 1020.96 1020.74 1020.58 1020.40 1020.25 1020.02 1019.63 1019.28 1018.47 1017.89 1017.34 1016.62 1016.05 1015.46 1014.84 1014.15 1013.63 1013.13 1012.25 1011.79 1011.27 1010.53 1010.16 1010.00 1010.24 1010.27 1010.06
1013.80 1014.38 1015.07 1015.47 1015.44 1015.29 1015.09 1014.36 1014.31 1014.20 1014.50 1014.78 1015.42 1015.83 1016.99 1017.84 1018.41 1018.88 1019.33 1020.22 1021.01 1021.28 1021.04 1020.89 1020.92 1020.90 1020.87 1020.71 1020.58 1020.50 1020.43 1020.34 1020.24 1020.06 1019.68 1019.19 1018.42 1017.86 1017.25 1016.64 1015.96 1015.79 1015.49 1015.06 1014.41 1013.71 1013.01 1012.30 1011.52 1010.57 1010.05 1010.18 1010.48 1010.53
1013.78 1014.16 1014.51 1014.83 1014.99 1014.77 1014.49 1013.93 1014.13 1014.18 1014.56 1014.85 1015.30 1015.96 1016.98 1017.70 1018.12 1018.63 1020.05 1020.78 1021.13 1020.97 1020.82 1020.83 1020.80 1020.78 1020.77 1020.63 1020.56 1020.69 1020.71 1020.69 1020.51 1020.12 1019.74 1019.50 1019.08 1018.63 1017.94 1017.38 1016.81 1016.34 1016.25 1015.91 1015.26 1014.52 1013.72 1013.09 1012.31 1011.58 1010.85 1010.63 1010.63 1010.86
1013.64 1014.10 1014.28 1014.34 1014.41 1014.34 1013.97 1013.95 1013.93 1014.14 1014.34 1014.83 1015.29 1015.96 1016.68 1017.43 1018.31 1019.17 1020.49 1020.97 1020.91 1020.81 1020.80 1020.80 1020.76 1020.74 1020.75 1020.73 1021.05 1021.40 1021.40 1021.18 1020.81 1020.37 1020.06 1019.86 1019.70 1019.17 1018.57 1018.08 1017.57 1017.10 1016.89 1016.45 1015.79 1015.15 1014.43 1013.72 1013.09 1012.36 1011.76 1011.21 1010.90 1011.01
1014.03 1014.21 1014.32 1014.06 1013.84 1013.87 1013.65 1013.59 1013.75 1014.03 1014.19 1014.55 1015.00 1015.76 1016.49 1017.15 1018.33 1019.54 1020.26 1020.69 1020.92 1020.85 1020.67 1020.69 1020.69 1020.72 1021.01 1021.43 1021.69 1021.76 1021.58 1021.51 1021.30 1020.97 1020.51 1020.25 1020.18 1019.82 1019.21 1018.70 1018.23 1017.70 1017.36 1016.71 1016.04 1015.58 1015.03 1014.39 1013.69 1013.20 1012.44 1011.76 1011.34 1011.01
1013.86 1013.80 1013.89 1013.35 1013.31 1013.18 1012.90 1013.17 1013.31 1013.51 1013.79 1014.26 1014.74 1015.36 1016.13 1017.28 1018.31 1019.05 1019.45 1019.70 1020.29 1020.36 1020.52 1020.67 1020.85 1021.09 1021.36 1021.48 1022.01 1022.01 1022.05 1021.73 1021.50 1021.42 1021.29 1020.92 1020.64 1020.44 1020.00 1019.30 1018.59 1018.16 1017.89 1017.34 1016.65 1015.96 1015.50 1014.99 1014.14 1013.48 1012.86 1012.24 1011.78 1011.23
1013.83 1013.49 1013.23 1012.89 1012.67 1012.48 1012.57 1012.50 1012.61 1012.94 1013.46 1013.81 1014.56 1015.57 1016.32 1017.40 1018.08 1018.78 1019.00 1019.27 1019.71 1019.65 1019.86 1020.22 1020.66 1020.92 1021.38 1021.79 1021.96 1022.02 1022.01 1021.86 1021.78 1021.75 1021.63 1021.33 1021.14 1020.97 1020.72 1020.22 1019.35 1018.78 1018.21 1017.64 1017.06 1016.52 1015.93 1015.30 1014.73 1014.19 1013.44 1012.68 1012.16 1011.71
1013.46 1013.12 1012.91 1012.70 1012.62 1012.43 1012.36 1012.39 1012.43 1012.59 1012.87 1013.26 1014.17 1015.36 1016.26 1017.07 1017.94 1018.56 1018.65 1018.81 1018.92 1019.36 1019.86 1020.10 1020.16 1020.48 1021.14 1021.63 1021.97 1022.14 1022.20 1022.06 1021.80 1021.68 1021.56 1021.53 1021.25 1021.07 1020.88 1020.47 1019.84 1019.07 1018.62 1018.02 1017.53 1016.87 1016.19 1015.60 1015.00 1014.29 1013.55 1012.81 1012.09 1011.60
1013.25 1012.96 1012.84 1012.67 1012.57 1012.36 1012.15 1012.09 1012.08 1012.08 1012.23 1013.12 1014.42 1015.86 1016.98 1017.44 1017.99 1018.21 1018.57 1018.75 1019.12 1019.64 1020.35 1020.62 1020.97 1020.98 1021.51 1021.92 1022.19 1022.47 1022.58 1022.51 1022.48 1022.42 1022.45 1022.34 1021.85 1021.36 1020.90 1020.49 1019.94 1019.31 1018.86 1018.41 1017.83 1017.30 1016.77 1015.88 1014.93 1014.24 1013.63 1012.95 1012.10 1011.28
1012.94 1012.73 1012.74 1012.41 1012.23 1012.02 1011.74 1011.70 1012.09 1012.54 1013.14 1013.75 1014.74 1016.38 1017.65 1018.59 1018.91 1018.70 1018.99 1019.47 1019.96 1020.43 1020.71 1020.86 1021.19 1021.43 1021.99 1022.34 1022.79 1023.00 1022.97 1022.90 1023.05 1023.16 1023.18 1023.07 1022.84 1022.15 1021.45 1020.88 1020.38 1019.81 1019.48 1019.05 1018.39 1017.65 1016.84 1015.88 1015.15 1014.39 1013.79 1013.08 1012.63 1012.11
1012.16 1012.20 1012.14 1011.95 1011.72 1011.48 1011.65 1012.25 1012.51 1013.28 1014.13 1015.04 1015.48 1016.45 1017.93 1019.16 1019.81 1020.09 1020.19 1020.45 1020.69 1020.99 1021.29 1021.78 1022.04 1022.09 1022.27 1022.50 1022.71 1022.96 1023.26 1023.20 1023.07 1023.08 1023.08 1023.05 1022.79 1022.41 1021.98 1021.54 1021.06 1020.49 1020.08 1019.54 1019.06 1018.59 1018.01 1017.22 1016.56 1015.90 1015.18 1014.49 1013.75 1013.03
1011.67 1011.65 1011.61 1011.55 1011.58 1011.96 1011.96 1012.71 1013.77 1014.71 1015.70 1016.35 1017.11 1017.52 1018.41 1019.29 1020.65 1021.30 1021.40 1021.35 1021.37 1021.79 1022.02 1022.06 1022.39 1022.75 1022.58 1022.47 1022.56 1022.77 1022.95 1023.25 1023.29 1023.21 1023.17 1023.13 1022.97 1022.68 1022.31 1021.98 1021.56 1021.14 1020.79 1020.46 1020.07 1019.65 1019.23 1018.76 1018.15 1017.48 1016.74 1015.93 1015.00 1014.14
1011.35 1011.27 1011.31 1011.36 1011.64 1012.17 1013.02 1013.59 1014.52 1015.53 1016.21 1016.93 1017.59 1018.05 1018.86 1019.71 1020.94 1021.69 1021.61 1021.67 1021.71 1021.97 1022.24 1022.48 1022.65 1022.74 1022.78 1022.81 1022.97 1023.20 1023.31 1023.38 1023.50 1023.43 1023.36 1023.31 1023.24 1023.00 1022.62 1022.30 1021.98 1021.74 1021.46 1021.23 1021.01 1020.71 1020.26 1019.79 1019.31 1018.80 1018.17 1017.44 1016.63 1015.71
Wind_Speed
13 12 12 11 10 10 11 7 7 10 12 11 11 10 10 10 9 5 4 3 1 3 10 6 4 3 1 3 3 4 6 4 4 5 3 3 3 3 3 3 3 3 2 4 3 5 8 5 5 4 7 14 15 12
13 12 13 12 10 10 10 8 8 9 11 11 11 11 11 10 8 6 2 2 1 4 9 3 14 16 14 18 4 2 4 5 5 2 2 3 3 3 1 3 2 3 5 3 5 6 3 4 8 13 8 15 14 14
14 14 13 12 10 10 10 8 8 10 11 11 11 12 11 10 9 4 3 2 2 4 6 4 4 5 7 14 13 6 3 6 6 4 1 2 5 1 3 5 3 4 3 5 4 4 6 11 8 7 15 14 14 15
14 14 13 12 10 10 10 9 9 11 12 12 12 12 12 11 10 9 3 2 2 2 4 9 4 10 8 6 8 15 6 2 2 2 2 4 3 4 4 6 6 7 4 6 5 11 11 10 6 10 16 13 14 15
15 14 13 12 11 10 10 9 10 11 13 12 12 13 12 11 10 6 4 4 6 4 3 7 14 4 8 8 13 11 14 6 2 2 3 3 3 4 2 4 4 3 4 3 5 10 8 8 14 9 16 17 14 13
16 13 9 12 11 11 9 9 10 12 14 13 13 13 12 10 7 2 3 1 3 3 3 5 5 7 10 11 6 4 8 3 2 3 3 3 2 2 3 4 7 5 5 5 6 7 5 10 8 10 17 15 13 13
17 13 12 15 11 11 10 10 11 14 14 14 14 14 12 8 1 3 3 3 7 3 3 4 5 6 6 5 4 2 4 3 4 3 3 3 3 5 3 3 13 16 17 13 5 7 8 6 8 11 13 13 13 10
16 11 14 13 11 11 10 9 12 14 15 16 16 16 14 6 2 4 4 9 6 3 2 3 6 6 4 4 4 2 1 2 3 2 1 2 1 3 4 7 15 12 11 5 7 5 1 12 8 11 10 12 12 10
18 15 16 13 11 11 9 9 12 14 16 18 19 4 3 2 2 3 7 7 1 1 1 1 3 6 5 4 3 3 2 2 2 2 2 1 1 3 6 9 9 6 4 7 8 8 9 8 8 12 12 12 11 11
19 17 15 13 13 11 7 8 11 14 17 16 3 1 1 2 3 7 0 1 1 1 1 2 2 5 3 3 4 3 1 3 2 3 1 3 1 16 18 22 9 5 5 6 5 10 10 11 11 13 11 11 9 11
20 18 16 16 13 10 6 7 8 13 5 3 3 0 2 7 2 1 2 2 2 2 2 3 4 5 2 3 3 2 3 3 3 1 2 1 4 16 22 23 20 8 6 6 4 6 5 5 8 13 12 11 11 10
20 18 16 15 13 11 8 6 5 2 1 3 1 1 2 1 1 2 3 3 2 2 2 4 5 6 5 3 3 3 3 3 3 5 2 4 7 20 22 22 20 14 8 6 4 4 4 4 7 9 11 11 10 10
20 18 16 15 15 12 9 6 4 2 1 1 1 0 3 1 1 3 1 2 3 2 3 3 5 3 5 1 0 2 3 3 5 5 5 3 16 20 23 23 17 9 7 5 4 7 6 7 4 9 10 10 9 9
20 18 16 17 15 12 9 6 3 1 2 2 3 2 3 2 2 2 3 4 5 3 5 3 3 2 2 4 2 2 3 3 4 6 5 8 19 20 19 22 7 10 5 3 4 5 6 7 7 9 9 10 10 11
20 17 17 16 15 12 9 6 4 2 2 2 3 2 3 1 1 2 1 1 3 3 2 4 1 1 3 3 4 4 4 4 3 5 6 11 19 18 18 19 17 10 5 3 2 4 5 6 6 5 7 8 9 9
18 15 6 13 15 12 9 5 3 2 2 2 3 1 1 3 1 0 0 2 2 4 1 3 3 4 5 4 4 6 4 5 4 6 8 12 16 18 19 18 17 9 7 3 2 2 4 6 5 5 6 6 7 9
16 3 14 16 12 13 12 3 3 4 3 3 3 2 3 3 3 2 2 2 2 3 2 1 4 2 1 3 4 3 2 4 7 9 9 14 15 17 19 19 18 12 10 6 3 1 1 2 4 5 5 5 6 6
2 6 15 17 12 6 2 3 2 3 4 4 2 2 3 3 4 0 1 2 2 1 2 2 3 6 3 2 1 1 3 5 5 7 9 11 13 15 14 16 16 15 10 9 6 2 3 2 2 1 2 4 4 5
8 8 17 19 6 4 4 4 3 3 4 2 2 3 4 3 2 2 1 3 3 2 4 4 5 3 2 1 2 4 4 5 7 9 9 11 13 13 15 15 15 17 13 12 11 7 3 5 4 3 1 2 3 3
16 15 13 10 4 1 3 3 3 2 3 3 3 4 4 3 3 2 3 4 3 3 5 3 3 1 1 1 1 3 4 6 7 8 8 9 9 12 13 12 10 12 11 13 12 13 8 6 3 1 0 1 1 2
7 6 9 4 1 2 2 0 2 4 2 3 4 4 3 3 2 2 2 2 4 3 2 1 2 1 1 1 3 2 4 6 6 5 7 8 9 9 10 9 10 8 9 9 10 11 12 10 8 3 3 2 1 1
4 10 3 2 2 3 2 3 3 1 3 3 4 3 4 3 3 2 3 4 2 1 2 2 2 1 1 1 2 3 4 5 5 3 7 8 7 8 9 9 9 9 8 8 8 9 9 9 10 8 2 3 3 3
9 3 2 3 3 3 5 2 2 2 3 3 2 4 2 2 3 3 3 1 2 3 2 2 2 1 2 3 1 4 5 5 4 4 4 5 7 7 7 8 8 8 8 8 8 8 9 12 11 10 4 1 1 2
2 4 4 5 4 4 2 3 1 2 2 2 4 4 3 4 3 3 2 2 3 3 3 4 2 2 1 1 3 3 4 3 4 3 5 4 5 7 7 7 7 7 8 8 7 8 8 9 12 10 9 6 2 4
4 4 5 4 3 4 4 4 4 2 4 4 4 3 3 3 3 2 4 3 3 4 4 4 3 3 2 2 1 3 4 3 3 3 4 4 3 4 6 6 7 7 9 9 10 10 10 9 9 9 10 9 9 4
4 5 6 5 3 4 5 5 6 5 4 3 4 4 3 4 3 4 4 5 4 4 4 5 4 2 1 2 3 1 4 3 2 4 4 4 4 5 7 8 8 7 9 9 10 11 11 11 11 14 11 12 10 8
3 5 3 3 2 1 1 2 3 4 5 4 4 3 4 3 5 3 1 2 3 4 5 4 4 4 3 3 2 1 1 3 2 2 2 3 4 3 5 7 10 8 10 11 10 11 12 11 11 11 11 10 8 8
3 2 4 3 3 2 2 3 4 4 4 3 5 5 8 6 4 3 4 3 4 4 3 2 3 4 6 4 4 3 3 4 3 4 2 3 4 3 7 6 7 12 9 10 11 10 11 11 11 11 11 11 10 8
2 2 2 2 2 2 4 5 4 3 3 4 4 3 3 2 2 2 2 4 4 5 5 6 5 7 6 4 4 4 3 3 6 8 8 5 6 5 8 7 8 8 8 9 14 12 15 13 12 10 10 9 9 9
3 3 3 4 4 5 3 3 3 3 4 3 5 4 4 5 5 3 5 4 5 5 4 5 4 5 4 5 4 3 3 3 2 3 1 3 4 6 7 8 8 8 8 8 10 12 15 11 10 10 11 9 8 8
3 4 3 3 4 3 4 7 8 7 4 4 5 5 5 4 3 6 5 3 5 4 6 5 5 3 5 4 4 4 3 3 4 5 2 1 3 5 6 7 7 7 8 9 9 10 12 11 11 12 12 14 14 12
4 5 4 4 3 3 3 5 3 4 3 3 2 2 3 4 4 3 3 2 5 5 4 5 5 3 3 3 4 5 5 3 3 3 4 3 4 5 5 5 6 6 7 8 8 9 11 12 10 13 13 16 15 15
3 2 2 1 4 4 3 4 4 3 3 3 2 1 3 4 4 2 1 2 3 4 4 4 4 4 6 6 5 4 4 4 4 4 3 4 5 6 5 5 5 6 7 7 7 8 10 11 11 13 14 14 15 16
Wind_Direction
237 247 252 255 264 274 278 276 295 304 307 314 324 328 328 337 344 356 278 201 122 255 282 249 256 215 247 175 196 289 349 338 355 19 308 348 337 323 349 268 232 218 236 237 238 242 269 37 8 311 292 297 295 300
229 239 246 249 253 265 274 267 286 295 300 307 313 317 319 325 335 334 279 274 172 222 257 278 256 241 239 245 207 215 234 318 288 357 26 331 319 311 264 278 179 280 200 270 230 251 204 336 254 288 293 297 295 295
229 235 241 244 247 255 266 265 281 288 294 302 308 311 314 315 315 299 239 259 274 282 297 337 267 255 225 227 221 195 234 189 240 194 175 266 261 229 249 248 262 293 158 243 267 245 247 267 282 304 307 296 297 296
229 231 237 241 243 248 255 262 276 286 294 300 306 307 308 307 313 314 271 226 184 277 292 282 312 302 271 236 184 210 235 223 160 131 173 244 254 216 252 254 281 255 203 255 257 268 284 277 277 325 315 311 300 302
224 225 232 240 243 245 242 254 269 282 288 295 302 304 306 308 319 309 256 224 207 169 279 287 311 255 280 259 245 214 213 210 157 182 212 235 251 246 248 248 244 208 233 246 286 316 282 303 304 345 339 311 309 305
225 216 231 242 243 246 242 254 268 283 287 298 303 303 304 309 339 360 351 92 186 177 281 300 275 284 308 320 333 162 167 188 221 208 223 227 259 175 279 265 259 268 280 266 292 296 260 274 302 345 323 311 311 309
224 206 226 241 237 240 243 257 276 280 291 297 298 298 297 300 114 219 192 190 156 167 251 292 300 282 301 315 326 50 158 192 181 217 219 224 216 182 255 263 280 301 299 303 295 326 325 15 313 320 321 313 315 311
208 201 236 229 231 233 239 256 274 286 296 301 299 291 284 259 254 261 253 251 196 195 259 303 282 326 356 311 319 338 237 204 208 254 227 232 170 225 264 250 269 286 303 316 345 341 39 297 311 339 331 331 334 335
194 198 235 222 219 227 234 259 280 294 302 306 303 291 110 95 165 239 123 104 129 160 240 251 312 304 347 283 273 301 273 259 163 243 230 167 212 242 256 297 306 336 327 313 339 350 292 315 3 343 345 341 347 341
188 196 221 234 214 213 224 263 289 302 308 306 150 183 106 142 202 97 201 223 50 21 223 255 261 268 9 300 289 300 337 286 265 236 179 202 259 352 353 339 303 310 330 340 329 351 349 350 347 350 340 341 359 346
185 193 213 230 209 196 207 255 292 309 351 45 33 268 310 323 71 92 211 219 141 262 213 244 243 280 268 248 275 257 314 270 279 292 250 294 50 342 331 334 339 332 328 345 30 8 5 303 337 354 350 356 353 352
182 195 214 216 189 180 207 240 288 14 124 184 161 294 303 89 119 238 202 134 214 253 227 228 247 215 270 209 262 302 273 302 264 339 266 53 346 335 332 331 324 300 317 345 42 18 328 312 1 356 346 352 2 357
183 197 211 191 176 179 207 219 249 220 306 113 135 39 86 175 67 232 28 356 347 250 253 272 302 260 333 31 334 313 309 320 320 17 33 58 329 334 336 330 314 290 317 353 42 7 6 351 347 17 5 7 7 9
183 199 197 173 174 185 204 206 206 153 136 184 167 2 172 218 207 151 150 195 239 215 274 259 259 221 287 6 8 324 356 9 36 20 354 337 332 326 326 326 316 321 316 350 24 28 8 9 23 23 21 8 14 19
181 191 170 172 177 192 199 197 198 164 156 210 145 211 191 127 84 175 214 31 278 246 294 332 343 80 343 11 15 357 20 44 25 12 306 323 322 329 332 329 322 334 301 316 30 39 25 17 17 14 20 29 19 15
163 145 163 177 186 195 189 183 187 175 226 225 219 181 97 90 348 96 247 322 298 323 38 45 20 35 21 6 21 11 43 26 342 320 329 318 322 328 325 332 324 348 332 308 9 45 33 33 25 20 11 14 23 18
127 161 174 170 176 178 175 161 184 207 229 215 240 164 138 113 167 210 166 273 298 55 15 47 53 191 316 43 33 29 18 304 312 330 319 316 323 324 325 329 334 344 353 349 322 142 87 52 39 29 17 14 25 24
100 146 163 167 153 132 156 212 234 214 217 223 173 192 112 113 132 244 266 308 57 68 59 71 71 50 47 77 342 304 304 318 327 313 310 313 327 324 327 327 335 340 347 357 340 237 173 157 102 333 357 7 38 28
139 147 157 159 157 167 160 179 200 223 215 193 152 94 92 109 58 72 34 8 71 73 81 49 69 66 39 17 309 314 336 330 324 320 316 326 342 335 329 338 354 3 359 1 3 344 276 202 185 189 241 360 16 16
129 137 147 163 179 169 172 215 156 158 205 213 96 111 127 130 124 79 43 35 56 57 48 60 98 140 216 337 309 288 301 325 319 320 334 338 342 340 348 345 351 2 5 1 358 3 9 17 22 81 214 305 352 336
103 138 126 123 169 239 269 251 169 195 184 144 128 126 108 87 88 60 53 23 59 59 84 123 104 105 281 207 240 281 330 338 334 345 339 332 337 347 347 349 357 9 8 4 352 349 2 359 352 285 172 135 243 112
108 153 112 187 223 186 255 230 196 195 118 140 125 112 115 127 145 165 134 59 81 171 149 137 131 98 69 311 320 309 309 336 346 4 352 340 346 350 349 349 355 9 5 356 344 346 340 339 339 324 190 162 156 134
135 128 139 158 186 145 245 120 164 170 139 180 89 102 121 132 170 114 69 149 190 187 157 145 171 184 239 280 6 17 345 349 334 332 351 1 351 350 346 350 352 357 358 349 342 338 339 338 342 343 347 240 173 110
156 147 166 177 165 196 175 197 181 124 106 104 138 120 150 133 145 69 158 216 220 163 142 165 178 198 215 117 68 16 334 325 337 2 7 22 3 349 345 344 349 355 353 336 338 341 341 345 341 345 342 333 212 188
113 227 138 210 198 173 192 153 158 125 163 164 134 122 164 116 98 160 186 220 159 178 158 174 195 198 131 112 77 345 338 9 353 342 344 11 0 347 349 346 352 359 352 339 347 346 343 336 344 339 337 343 332 239
186 211 169 189 176 184 185 158 172 166 145 139 175 130 91 103 143 210 217 172 166 177 166 182 178 118 88 128 139 23 324 324 27 45 351 0 23 6 345 340 347 352 351 342 338 339 339 335 337 337 330 334 331 331
199 215 208 238 226 204 137 88 115 119 166 167 151 117 107 139 220 220 130 181 147 183 174 169 166 170 161 142 126 94 13 15 63 196 272 0 12 17 354 339 337 341 341 339 339 338 331 331 327 320 314 312 310 309
236 259 197 196 199 196 144 148 144 165 171 148 109 154 164 184 184 171 186 196 146 128 141 228 223 155 134 134 125 89 23 352 355 8 3 345 340 344 355 335 323 340 343 338 339 336 335 327 318 309 304 300 298 295
228 250 169 227 213 196 205 190 191 187 148 133 114 112 121 63 152 136 135 126 109 107 103 103 72 98 94 87 74 61 30 28 49 37 22 351 347 338 347 340 338 347 351 346 337 340 337 328 323 320 314 302 299 298
236 178 181 209 180 202 218 176 131 67 38 77 105 95 50 28 357 12 80 80 91 101 100 101 108 112 129 129 124 74 27 48 78 110 82 331 300 309 331 338 337 344 349 348 346 345 345 348 352 356 356 355 356 341
197 179 210 189 208 181 116 103 81 63 48 45 45 97 119 133 53 27 40 51 96 91 93 86 77 86 105 111 137 131 79 18 41 48 68 2 337 338 340 337 332 341 350 353 356 0 0 356 358 358 360 1 358 355
184 196 191 177 112 67 81 58 69 78 85 67 86 81 77 78 87 350 349 31 87 83 89 107 102 84 81 88 83 89 100 96 43 18 46 37 3 352 346 341 339 354 3 2 2 4 8 13 10 10 3 5 4 5
181 178 165 152 118 103 110 104 99 90 79 78 89 82 68 103 122 171 15 36 129 138 126 112 106 95 78 77 103 108 86 95 81 48 84 77 49 21 9 360 356 6 9 10 11 7 11 11 15 11 11 12 11 14